Location: Ergnies
(50.0854°N, 2.0375°E)
Time: 06:46:39
(UTC+00:00)

NOSS 8 (F) - Pass Details

Date: 14 January 2026
Orbit: 363 x 1536 km, 63.3° (Epoch: 10 February)

Event Time Altitude Azimuth Distance (km) Brightness Sun altitude
Exits shadow 06:15:41 24° 324° (NW) 841 5.3 -13.9°
Maximum altitude 06:17:19 73° 45° (NE) 413 4.2 -13.6°
Drops below altitude 10° 06:20:38 10° 132° (SE) 1,550 8.2 -13.1°
Sets 06:22:56 0° 134° (SE) 2,548 9.5 -12.8°
